Location: Kuppenheim
(48.8299°N, 8.2568°E)
Time: 16:20:50
(UTC+00:00)

Cosmos 1697 Rocket - Pass Details

Date: 20 June 2021
Orbit: 831 x 845 km, 71.0° (Epoch: 30 July)

Event Time Altitude Azimuth Distance (km) Brightness Sun altitude
Rises 02:06:38 0° 334° (NNW) 3,404 6.3 -9.6°
Reaches altitude 10° 02:09:16 10° 343° (NNW) 2,468 5.7 -9.3°
Maximum altitude 02:14:32 39° 51° (NE) 1,255 4.4 -8.8°
Drops below altitude 10° 02:19:48 10° 120° (ESE) 2,462 5.3 -8.3°
Sets 02:22:24 0° 128° (SE) 3,394 5.9 -8.0°
